Bookmark and Share
Track history (hours):
 

Cfl Racer

Last reported at 2014-Apr-19 06:33 UTC. Time now 2014-Apr-19 07:03 UTC.
Position N 54°01' E 007°40'.

Length 83 m; draft 4.5 m.

Type: Cargo ship. MMSI: 306762000.

NotesDate/timePositionNaut miles runAvg speedWind from/ knotsBaromVisibWave heightAir tempDewpointWater temp
2014-Apr-19 06:33N 54°01' E 007°40'1110.9
2014-Apr-19 05:33N 54°01' E 007°59'1212.1
2014-Apr-19 04:33N 54°00' E 008°19'1212.2
2014-Apr-19 03:33N 53°57' E 008°39'9 9.0
2014-Apr-19 02:33N 53°50' E 008°50'8 8.5
2014-Apr-19 01:33N 53°52' E 009°04'4 4.4
2014-Apr-19 00:33N 53°55' E 009°11'9 8.6
2014-Apr-18 23:33N 54°02' E 009°18'9 8.0
2014-Apr-18 22:24N 54°10' E 009°26'5 5.4
2014-Apr-18 21:33N 54°12' E 009°33'64 7.2
2014-Apr-18 12:32N 54°34' E 011°17'1111.1
2014-Apr-18 11:33N 54°30' E 011°34'1211.8
2014-Apr-18 10:33N 54°26' E 011°54'2110.3
2014-Apr-18 08:33N 54°36' E 012°26'1111.1
2014-Apr-18 07:33N 54°40' E 012°43'1211.3
2014-Apr-18 06:31N 54°42' E 013°03'1010.8
2014-Apr-18 05:33N 54°43' E 013°21'10 9.7
2014-Apr-18 04:33N 54°39' E 013°37'1110.7
2014-Apr-18 03:33N 54°31' E 013°48'1110.8
2014-Apr-18 02:33N 54°21' E 013°57'1310.8
2014-Apr-18 01:22N 54°10' E 014°06'910.9
2014-Apr-18 00:33N 54°02' E 014°13'9 8.8
2014-Apr-17 23:33N 53°53' E 014°16'9 8.5
2014-Apr-17 22:33N 53°46' E 014°24'1110.6
2014-Apr-17 21:33N 53°38' E 014°35'9 9.3
2014-Apr-17 20:33N 53°28' E 014°36'4 1.3
2014-Apr-17 17:17N 53°24' E 014°37'0 0.0
2014-Apr-17 16:32N 53°24' E 014°37'0 0.0
2014-Apr-17 15:32N 53°24' E 014°37'0 0.0
2014-Apr-17 14:11N 53°24' E 014°37'0 0.0
2014-Apr-17 13:14N 53°24' E 014°37'0 0.0
2014-Apr-17 11:23N 53°24' E 014°37'0 0.0
2014-Apr-17 06:14N 53°24' E 014°37'0 0.0
2014-Apr-17 05:32N 53°24' E 014°37'0 0.0
2014-Apr-17 04:29N 53°24' E 014°37'0 0.0
2014-Apr-17 02:32N 53°24' E 014°37'0 0.0
2014-Apr-17 01:32N 53°24' E 014°37'0 0.0
2014-Apr-17 00:26N 53°24' E 014°37'0 0.0
2014-Apr-16 23:32N 53°24' E 014°37'0 0.0
2014-Apr-16 22:23N 53°24' E 014°37'0 0.0
2014-Apr-16 21:23N 53°24' E 014°37'0 0.0
2014-Apr-16 20:29N 53°24' E 014°37'0 0.0
2014-Apr-16 13:20N 53°24' E 014°37'0 0.0
2014-Apr-16 12:29N 53°24' E 014°37'0 0.0
2014-Apr-16 10:17N 53°24' E 014°37'0 0.0
2014-Apr-16 06:05N 53°24' E 014°37'0 0.0
2014-Apr-16 04:23N 53°24' E 014°37'0 0.0
2014-Apr-16 03:26N 53°24' E 014°37'0 0.0
2014-Apr-16 02:32N 53°24' E 014°37'0 0.0
2014-Apr-15 20:08N 53°24' E 014°37'0 0.0
2014-Apr-15 19:32N 53°24' E 014°37'0 0.0
2014-Apr-15 15:14N 53°24' E 014°37'0 0.0
2014-Apr-15 14:32N 53°24' E 014°37'  
2014-Apr-12 16:33N 53°25' E 014°37'10 8.0
2014-Apr-12 15:18N 53°35' E 014°36'7 9.8
2014-Apr-12 14:33N 53°41' E 014°30'1110.8
2014-Apr-12 13:33N 53°50' E 014°19'7 7.5
2014-Apr-12 12:33N 53°57' E 014°16'1 1.0
2014-Apr-12 11:31N 53°58' E 014°15'0 0.0
2014-Apr-12 10:31N 53°58' E 014°15'0 0.0
2014-Apr-12 09:31N 53°58' E 014°15'0 0.0
2014-Apr-12 08:31N 53°58' E 014°15'0 0.0
2014-Apr-12 07:32N 53°58' E 014°15'0 0.0
2014-Apr-12 06:31N 53°58' E 014°15'0 0.0
2014-Apr-12 05:31N 53°58' E 014°15'0 0.0
2014-Apr-12 04:31N 53°58' E 014°15'0 0.0
2014-Apr-12 03:31N 53°58' E 014°15'0 0.0
2014-Apr-12 02:28N 53°58' E 014°15'0 0.0
2014-Apr-12 01:31N 53°58' E 014°15'0 0.0
2014-Apr-12 00:31N 53°58' E 014°15'0 0.0
2014-Apr-11 23:31N 53°58' E 014°15'0 0.0
2014-Apr-11 22:31N 53°58' E 014°15'0 0.0
2014-Apr-11 21:31N 53°58' E 014°15'0 0.0
2014-Apr-11 20:31N 53°58' E 014°15'0 0.0
2014-Apr-11 19:31N 53°58' E 014°15'0 0.0
2014-Apr-11 18:31N 53°58' E 014°15'0 0.0
2014-Apr-11 17:31N 53°58' E 014°15'5 5.1
2014-Apr-11 16:34N 54°02' E 014°13'1111.1
2014-Apr-11 15:33N 54°12' E 014°04'1111.1
2014-Apr-11 14:34N 54°22' E 013°56'1111.2
2014-Apr-11 13:34N 54°32' E 013°46'1111.3
2014-Apr-11 12:33N 54°41' E 013°34'1110.7
2014-Apr-11 11:33N 54°42' E 013°16'1111.4
2014-Apr-11 10:33N 54°41' E 012°56'1111.4
2014-Apr-11 09:33N 54°38' E 012°37'1211.7
2014-Apr-11 08:33N 54°32' E 012°20'1110.7
2014-Apr-11 07:33N 54°25' E 012°06'1211.7
2014-Apr-11 06:33N 54°25' E 011°47'1212.1
2014-Apr-11 05:33N 54°30' E 011°28'63 7.7
2014-Apr-10 21:21N 54°18' E 009°41'8 6.7
2014-Apr-10 20:06N 54°11' E 009°31'5 9.0
2014-Apr-10 19:33N 54°10' E 009°23'8 8.0
2014-Apr-10 18:33N 54°02' E 009°18'8 8.5
2014-Apr-10 17:34N 53°55' E 009°11'2 2.2
2014-Apr-10 16:34N 53°53' E 009°08'7 6.7
2014-Apr-10 15:34N 53°51' E 008°58'8 7.8
2014-Apr-10 14:33N 53°51' E 008°44'8 8.4
2014-Apr-10 13:34N 53°58' E 008°35'10 9.8
2014-Apr-10 12:33N 53°60' E 008°18'1111.0
2014-Apr-10 11:33N 53°58' E 007°60'3210.7
2014-Apr-10 08:33N 53°51' E 007°07'2711.4
2014-Apr-10 06:11N 53°44' E 006°22'711.7
2014-Apr-10 05:33N 53°42' E 006°10'1211.9
2014-Apr-10 04:34N 53°38' E 005°51'1212.1
2014-Apr-10 03:33N 53°34' E 005°32'1212.3
2014-Apr-10 02:33N 53°30' E 005°12'1612.5
2014-Apr-10 01:18N 53°25' E 004°48'2212.2
2014-Apr-09 23:31N 53°06' E 004°28'1212.1
2014-Apr-09 22:33N 52°56' E 004°19'1211.6
2014-Apr-09 21:33N 52°46' E 004°10'1111.3
2014-Apr-09 20:33N 52°36' E 004°00'1110.5
2014-Apr-09 19:28N 52°26' E 003°53'1110.2
2014-Apr-09 18:20N 52°14' E 003°53'810.4
2014-Apr-09 17:32N 52°06' E 003°55'9 9.4
2014-Apr-09 16:33N 51°59' E 004°05'1311.0
2014-Apr-09 15:20N 51°51' E 004°22'911.1
2014-Apr-09 14:33N 51°48' E 004°35'7 6.5
2014-Apr-09 13:30N 51°42' E 004°37'0 0.0
2014-Apr-09 12:32N 51°42' E 004°37'0 0.0
2014-Apr-09 10:18N 51°42' E 004°37'0 0.0
2014-Apr-09 09:32N 51°42' E 004°37'0 0.0
2014-Apr-09 08:19N 51°42' E 004°37'0 0.0
2014-Apr-09 07:30N 51°42' E 004°37'0 0.0
2014-Apr-09 06:33N 51°42' E 004°37'  

Dump ship's entire track history

sailing weather and tide predictions

Cfl Racer — PJMV — position and weather